Year,Month,Day,Hour,Minute,Value (Times are PST for temperature in C)
2019,03,27,00,00,4.10
2019,03,27,00,01,4.10
2019,03,27,00,02,4.20
2019,03,27,00,03,4.20
2019,03,27,00,04,4.20
2019,03,27,00,05,4.30
2019,03,27,00,06,4.30
2019,03,27,00,07,4.30
2019,03,27,00,08,4.40
2019,03,27,00,09,4.40
2019,03,27,00,10,4.40
2019,03,27,00,11,4.50
2019,03,27,00,12,4.50
2019,03,27,00,13,4.60
2019,03,27,00,14,4.60
2019,03,27,00,15,4.60
2019,03,27,00,16,4.60
2019,03,27,00,17,4.60
2019,03,27,00,18,4.70
2019,03,27,00,19,4.70
2019,03,27,00,20,4.70
2019,03,27,00,21,4.70
2019,03,27,00,22,4.70
2019,03,27,00,23,4.70
2019,03,27,00,24,4.70
2019,03,27,00,25,4.80
2019,03,27,00,26,4.70
2019,03,27,00,27,4.70
2019,03,27,00,28,4.70
2019,03,27,00,29,4.70
2019,03,27,00,30,4.70
2019,03,27,00,31,4.70
2019,03,27,00,32,4.70
2019,03,27,00,33,4.70
2019,03,27,00,34,4.70
2019,03,27,00,35,4.70
2019,03,27,00,36,4.70
2019,03,27,00,37,4.70
2019,03,27,00,38,4.70
2019,03,27,00,39,4.70
2019,03,27,00,40,4.70
2019,03,27,00,41,4.70
2019,03,27,00,42,4.70
2019,03,27,00,43,4.70
2019,03,27,00,44,4.70
2019,03,27,00,45,4.70
2019,03,27,00,46,4.60
2019,03,27,00,47,4.60
2019,03,27,00,48,4.60
2019,03,27,00,49,4.60
2019,03,27,00,50,4.60
2019,03,27,00,51,4.60
2019,03,27,00,52,4.60
2019,03,27,00,53,4.60
2019,03,27,00,54,4.50
2019,03,27,00,55,4.50
2019,03,27,00,56,4.50
2019,03,27,00,57,4.50
2019,03,27,00,58,4.50
2019,03,27,00,59,4.50
2019,03,27,01,00,4.50
2019,03,27,01,01,4.50
2019,03,27,01,02,4.50
2019,03,27,01,03,4.50
2019,03,27,01,04,4.60
2019,03,27,01,05,4.60
2019,03,27,01,06,4.60
2019,03,27,01,07,4.60
2019,03,27,01,08,4.60
2019,03,27,01,09,4.60
2019,03,27,01,10,4.60
2019,03,27,01,11,4.60
2019,03,27,01,12,4.60
2019,03,27,01,13,4.70
2019,03,27,01,14,4.70
2019,03,27,01,15,4.70
2019,03,27,01,16,4.70
2019,03,27,01,17,4.70
2019,03,27,01,18,4.70
2019,03,27,01,19,4.70
2019,03,27,01,20,4.70
2019,03,27,01,21,4.70
2019,03,27,01,22,4.70
2019,03,27,01,23,4.80
2019,03,27,01,24,4.80
2019,03,27,01,25,4.80
2019,03,27,01,26,4.80
2019,03,27,01,27,4.90
2019,03,27,01,28,4.90
2019,03,27,01,29,5.00
2019,03,27,01,30,5.00
2019,03,27,01,31,5.00
2019,03,27,01,32,5.10
2019,03,27,01,33,5.10
2019,03,27,01,34,5.10
2019,03,27,01,35,5.20
2019,03,27,01,36,5.20
2019,03,27,01,37,5.20
2019,03,27,01,38,5.20
2019,03,27,01,39,5.20
2019,03,27,01,40,5.20
2019,03,27,01,41,5.20
2019,03,27,01,42,5.10
2019,03,27,01,43,5.10
2019,03,27,01,44,5.10
2019,03,27,01,45,5.10
2019,03,27,01,46,5.10
2019,03,27,01,47,5.00
2019,03,27,01,48,5.10
2019,03,27,01,49,5.10
2019,03,27,01,50,5.10
2019,03,27,01,51,5.20
2019,03,27,01,52,5.20
2019,03,27,01,53,5.20
2019,03,27,01,54,5.20
2019,03,27,01,55,5.20
2019,03,27,01,56,5.20
2019,03,27,01,57,5.10
2019,03,27,01,58,5.10
2019,03,27,01,59,5.10
2019,03,27,02,00,5.10
2019,03,27,02,01,5.10
2019,03,27,02,02,5.10
2019,03,27,02,03,5.10
2019,03,27,02,04,5.10
2019,03,27,02,05,5.10
2019,03,27,02,06,5.10
2019,03,27,02,07,5.10
2019,03,27,02,08,5.10
2019,03,27,02,09,5.10
2019,03,27,02,10,5.10
2019,03,27,02,11,5.10
2019,03,27,02,12,5.10
2019,03,27,02,13,5.10
2019,03,27,02,14,5.10
2019,03,27,02,15,5.10
2019,03,27,02,16,5.10
2019,03,27,02,17,5.10
2019,03,27,02,18,5.20
2019,03,27,02,19,5.20
2019,03,27,02,20,5.20
2019,03,27,02,21,5.20
2019,03,27,02,22,5.20
2019,03,27,02,23,5.20
2019,03,27,02,24,5.10
2019,03,27,02,25,5.10
2019,03,27,02,26,5.10
2019,03,27,02,27,5.10
2019,03,27,02,28,5.20
2019,03,27,02,29,5.20
2019,03,27,02,30,5.30
2019,03,27,02,31,5.30
2019,03,27,02,32,5.30
2019,03,27,02,33,5.40
2019,03,27,02,34,5.40
2019,03,27,02,35,5.40
2019,03,27,02,36,5.50
2019,03,27,02,37,5.50
2019,03,27,02,38,5.60
2019,03,27,02,39,5.60
2019,03,27,02,40,5.50
2019,03,27,02,41,5.50
2019,03,27,02,42,5.40
2019,03,27,02,43,5.40
2019,03,27,02,44,5.40
2019,03,27,02,45,5.40
2019,03,27,02,46,5.40
2019,03,27,02,47,5.30
2019,03,27,02,48,5.30
2019,03,27,02,49,5.30
2019,03,27,02,50,5.30
2019,03,27,02,51,5.30
2019,03,27,02,52,5.30
2019,03,27,02,53,5.30
2019,03,27,02,54,5.30
2019,03,27,02,55,5.30
2019,03,27,02,56,5.30
2019,03,27,02,57,5.40
2019,03,27,02,58,5.40
2019,03,27,02,59,5.40
2019,03,27,03,00,5.40
2019,03,27,03,01,5.40
2019,03,27,03,02,5.50
2019,03,27,03,03,5.50
2019,03,27,03,04,5.60
2019,03,27,03,05,5.60
2019,03,27,03,06,5.60
2019,03,27,03,07,5.60
2019,03,27,03,08,5.50
2019,03,27,03,09,5.40
2019,03,27,03,10,5.30
2019,03,27,03,11,5.20
2019,03,27,03,12,5.20
2019,03,27,03,13,5.20
2019,03,27,03,14,5.10
2019,03,27,03,15,5.10
2019,03,27,03,16,5.10
2019,03,27,03,17,5.10
2019,03,27,03,18,5.10
2019,03,27,03,19,5.10
2019,03,27,03,20,5.00
2019,03,27,03,21,5.00
2019,03,27,03,22,5.00
2019,03,27,03,23,4.90
2019,03,27,03,24,4.90
2019,03,27,03,25,4.90
2019,03,27,03,26,4.90
2019,03,27,03,27,4.80
2019,03,27,03,28,4.80
2019,03,27,03,29,4.80
2019,03,27,03,30,4.80
2019,03,27,03,31,4.80
2019,03,27,03,32,4.80
2019,03,27,03,33,4.70
2019,03,27,03,34,4.70
2019,03,27,03,35,4.70
2019,03,27,03,36,4.70
2019,03,27,03,37,4.70
2019,03,27,03,38,4.70
2019,03,27,03,39,4.70
2019,03,27,03,40,4.70
2019,03,27,03,41,4.60
2019,03,27,03,42,4.60
2019,03,27,03,43,4.60
2019,03,27,03,44,4.60
2019,03,27,03,45,4.60
2019,03,27,03,46,4.70
2019,03,27,03,47,4.80
2019,03,27,03,48,4.80
2019,03,27,03,49,4.80
2019,03,27,03,50,4.80
2019,03,27,03,51,4.90
2019,03,27,03,52,4.90
2019,03,27,03,53,4.90
2019,03,27,03,54,4.90
2019,03,27,03,55,4.90
2019,03,27,03,56,4.90
2019,03,27,03,57,4.90
2019,03,27,03,58,4.90
2019,03,27,03,59,4.90
2019,03,27,04,00,4.90
2019,03,27,04,01,4.90
2019,03,27,04,02,4.90
2019,03,27,04,03,4.80
2019,03,27,04,04,4.80
2019,03,27,04,05,4.70
2019,03,27,04,06,4.70
2019,03,27,04,07,4.70
2019,03,27,04,08,4.60
2019,03,27,04,09,4.60
2019,03,27,04,10,4.60
2019,03,27,04,11,4.50
2019,03,27,04,12,4.50
2019,03,27,04,13,4.60
2019,03,27,04,14,4.70
2019,03,27,04,15,4.80
2019,03,27,04,16,5.00
2019,03,27,04,17,5.20
2019,03,27,04,18,5.30
2019,03,27,04,19,5.40
2019,03,27,04,20,5.50
2019,03,27,04,21,5.60
2019,03,27,04,22,5.70
2019,03,27,04,23,5.80
2019,03,27,04,24,5.90
2019,03,27,04,25,5.90
2019,03,27,04,26,6.00
2019,03,27,04,27,6.10
2019,03,27,04,28,6.10
2019,03,27,04,29,6.10
2019,03,27,04,30,6.10
2019,03,27,04,31,6.10
2019,03,27,04,32,6.20
2019,03,27,04,33,6.20
2019,03,27,04,34,6.20
2019,03,27,04,35,6.20
2019,03,27,04,36,6.20
2019,03,27,04,37,6.20
2019,03,27,04,38,6.20
2019,03,27,04,39,6.20
2019,03,27,04,40,6.20
2019,03,27,04,41,6.30
2019,03,27,04,42,6.30
2019,03,27,04,43,6.30
2019,03,27,04,44,6.30
2019,03,27,04,45,6.30
2019,03,27,04,46,6.30
2019,03,27,04,47,6.30
2019,03,27,04,48,6.30
2019,03,27,04,49,6.30
2019,03,27,04,50,6.30
2019,03,27,04,51,6.30
2019,03,27,04,52,6.30
2019,03,27,04,53,6.30
2019,03,27,04,54,6.30
2019,03,27,04,55,6.30
2019,03,27,04,56,6.30
2019,03,27,04,57,6.30
2019,03,27,04,58,6.30
2019,03,27,04,59,6.30
2019,03,27,05,00,6.30
2019,03,27,05,01,6.20
2019,03,27,05,02,6.30
2019,03,27,05,03,6.20
2019,03,27,05,04,6.20
2019,03,27,05,05,6.20
2019,03,27,05,06,6.20
2019,03,27,05,07,6.20
2019,03,27,05,08,6.20
2019,03,27,05,09,6.10
2019,03,27,05,10,6.10
2019,03,27,05,11,6.10
2019,03,27,05,12,6.10
2019,03,27,05,13,6.10
2019,03,27,05,14,6.10
2019,03,27,05,15,6.10
2019,03,27,05,16,6.10
2019,03,27,05,17,6.10
2019,03,27,05,18,6.10
2019,03,27,05,19,6.10
2019,03,27,05,20,6.10
2019,03,27,05,21,6.10
2019,03,27,05,22,6.10
2019,03,27,05,23,6.10
2019,03,27,05,24,6.10
2019,03,27,05,25,6.10
2019,03,27,05,26,6.10
2019,03,27,05,27,6.10
2019,03,27,05,28,6.10
2019,03,27,05,29,6.10
2019,03,27,05,30,6.10
2019,03,27,05,31,6.10
2019,03,27,05,32,6.10
2019,03,27,05,33,6.10
2019,03,27,05,34,6.10
2019,03,27,05,35,6.10
2019,03,27,05,36,6.10
2019,03,27,05,37,6.10
2019,03,27,05,38,6.10
2019,03,27,05,39,6.10
2019,03,27,05,40,6.10
2019,03,27,05,41,6.10
2019,03,27,05,42,6.10
2019,03,27,05,43,6.10
2019,03,27,05,44,6.10
2019,03,27,05,45,6.10
2019,03,27,05,46,6.10
2019,03,27,05,47,6.10
2019,03,27,05,48,6.10
2019,03,27,05,49,6.10
2019,03,27,05,50,6.10
2019,03,27,05,51,6.10
2019,03,27,05,52,6.10
2019,03,27,05,53,6.00
2019,03,27,05,54,6.00
2019,03,27,05,55,6.00
2019,03,27,05,56,6.00
2019,03,27,05,57,6.00
2019,03,27,05,58,6.00
2019,03,27,05,59,6.00
2019,03,27,06,00,5.90
2019,03,27,06,01,5.90
2019,03,27,06,02,5.90
2019,03,27,06,03,5.80
2019,03,27,06,04,5.80
2019,03,27,06,05,5.80
2019,03,27,06,06,5.80
2019,03,27,06,07,5.80
2019,03,27,06,08,5.80
2019,03,27,06,09,5.70
2019,03,27,06,10,5.70
2019,03,27,06,11,5.70
2019,03,27,06,12,5.70
2019,03,27,06,13,5.70
2019,03,27,06,14,5.70
2019,03,27,06,15,5.70
2019,03,27,06,16,5.70
2019,03,27,06,17,5.70
2019,03,27,06,18,5.70
2019,03,27,06,19,5.60
2019,03,27,06,20,5.60
2019,03,27,06,21,5.60
2019,03,27,06,22,5.60
2019,03,27,06,23,5.60
2019,03,27,06,24,5.60
2019,03,27,06,25,5.60
2019,03,27,06,26,5.60
2019,03,27,06,27,5.60
2019,03,27,06,28,5.60
2019,03,27,06,29,5.50
2019,03,27,06,30,5.50
2019,03,27,06,31,5.50
2019,03,27,06,32,5.50
2019,03,27,06,33,5.50
2019,03,27,06,34,5.50
2019,03,27,06,35,5.40
2019,03,27,06,36,5.40
2019,03,27,06,37,5.40
2019,03,27,06,38,5.30
2019,03,27,06,39,5.30
2019,03,27,06,40,5.30
2019,03,27,06,41,5.30
2019,03,27,06,42,5.30
2019,03,27,06,43,5.20
2019,03,27,06,44,5.20
2019,03,27,06,45,5.20
2019,03,27,06,46,5.20
2019,03,27,06,47,5.10
2019,03,27,06,48,5.10
2019,03,27,06,49,5.00
2019,03,27,06,50,5.00
2019,03,27,06,51,4.90
2019,03,27,06,52,4.90
2019,03,27,06,53,4.90
2019,03,27,06,54,4.80
2019,03,27,06,55,4.80
2019,03,27,06,56,4.70
2019,03,27,06,57,4.70
2019,03,27,06,58,4.70
2019,03,27,06,59,4.70
2019,03,27,07,00,4.70
2019,03,27,07,01,4.60
2019,03,27,07,02,4.60
2019,03,27,07,03,4.60
2019,03,27,07,04,4.60
2019,03,27,07,05,4.60
2019,03,27,07,06,4.60
2019,03,27,07,07,4.70
2019,03,27,07,08,4.70
2019,03,27,07,09,4.70
2019,03,27,07,10,4.70
2019,03,27,07,11,4.80
2019,03,27,07,12,4.80
2019,03,27,07,13,4.90
2019,03,27,07,14,4.90
2019,03,27,07,15,5.00
2019,03,27,07,16,5.00
2019,03,27,07,17,5.00
2019,03,27,07,18,5.10
2019,03,27,07,19,5.10
2019,03,27,07,20,5.00
2019,03,27,07,21,5.00
2019,03,27,07,22,5.00
2019,03,27,07,23,4.90
2019,03,27,07,24,5.00
2019,03,27,07,25,4.90
2019,03,27,07,26,4.90
2019,03,27,07,27,4.90
2019,03,27,07,28,4.90
2019,03,27,07,29,4.90
2019,03,27,07,30,5.00
2019,03,27,07,31,5.10
2019,03,27,07,32,5.10
2019,03,27,07,33,5.10
2019,03,27,07,34,5.10
2019,03,27,07,35,5.10
2019,03,27,07,36,5.10
2019,03,27,07,37,5.10
2019,03,27,07,38,5.00
2019,03,27,07,39,5.00
2019,03,27,07,40,5.00
2019,03,27,07,41,5.00
2019,03,27,07,42,4.90
2019,03,27,07,43,5.00
2019,03,27,07,44,4.90
2019,03,27,07,45,4.90
2019,03,27,07,46,5.00
2019,03,27,07,47,5.00
2019,03,27,07,48,5.00
2019,03,27,07,49,5.00
2019,03,27,07,50,4.90
2019,03,27,07,51,4.90
2019,03,27,07,52,4.90
2019,03,27,07,53,4.90
2019,03,27,07,54,4.80
2019,03,27,07,55,4.80
2019,03,27,07,56,4.90
2019,03,27,07,57,4.90
2019,03,27,07,58,4.90
2019,03,27,07,59,5.00
2019,03,27,08,00,5.10
2019,03,27,08,01,5.10
2019,03,27,08,02,5.10
2019,03,27,08,03,5.20
2019,03,27,08,04,5.30
2019,03,27,08,05,5.40
2019,03,27,08,06,5.40
2019,03,27,08,07,5.40
2019,03,27,08,08,5.50
2019,03,27,08,09,5.50
2019,03,27,08,10,5.60
2019,03,27,08,11,5.60
2019,03,27,08,12,5.60
2019,03,27,08,13,5.60
2019,03,27,08,14,5.60
2019,03,27,08,15,5.60
2019,03,27,08,16,5.60
2019,03,27,08,17,5.60
2019,03,27,08,18,5.60
2019,03,27,08,19,5.60
2019,03,27,08,20,5.60
2019,03,27,08,21,5.60
2019,03,27,08,22,5.60
2019,03,27,08,23,5.60
2019,03,27,08,24,5.60
2019,03,27,08,25,5.60
2019,03,27,08,26,5.70
2019,03,27,08,27,5.70
2019,03,27,08,28,5.70
2019,03,27,08,29,5.70
2019,03,27,08,30,5.70
2019,03,27,08,31,5.70
2019,03,27,08,32,5.80
2019,03,27,08,33,5.80
2019,03,27,08,34,5.80
2019,03,27,08,35,5.80
2019,03,27,08,36,5.90
2019,03,27,08,37,5.90
2019,03,27,08,38,6.00
2019,03,27,08,39,6.00
2019,03,27,08,40,6.10
2019,03,27,08,41,6.10
2019,03,27,08,42,6.20
2019,03,27,08,43,6.20
2019,03,27,08,44,6.20
2019,03,27,08,45,6.30
2019,03,27,08,46,6.30
2019,03,27,08,47,6.40
2019,03,27,08,48,6.40
2019,03,27,08,49,6.40
2019,03,27,08,50,6.50
2019,03,27,08,51,6.50
2019,03,27,08,52,6.60
2019,03,27,08,53,6.60
2019,03,27,08,54,6.70
2019,03,27,08,55,6.70
2019,03,27,08,56,6.80
2019,03,27,08,57,6.80
2019,03,27,08,58,6.80
2019,03,27,08,59,6.90
2019,03,27,09,00,6.90
2019,03,27,09,01,7.00
2019,03,27,09,02,7.00
2019,03,27,09,03,7.00
2019,03,27,09,04,7.00
2019,03,27,09,05,7.10
2019,03,27,09,06,7.00
2019,03,27,09,07,7.00
2019,03,27,09,08,7.00
2019,03,27,09,09,7.00
2019,03,27,09,10,7.00
2019,03,27,09,11,7.00
2019,03,27,09,12,7.00
2019,03,27,09,13,7.10
2019,03,27,09,14,7.00
2019,03,27,09,15,7.10
2019,03,27,09,16,7.10
2019,03,27,09,17,7.10
2019,03,27,09,18,7.10
2019,03,27,09,19,7.10
2019,03,27,09,20,7.10
2019,03,27,09,21,7.20
2019,03,27,09,22,7.20
2019,03,27,09,23,7.30
2019,03,27,09,24,7.30
2019,03,27,09,25,7.40
2019,03,27,09,26,7.40
2019,03,27,09,27,7.50
2019,03,27,09,28,7.60
2019,03,27,09,29,7.60
2019,03,27,09,30,7.70
2019,03,27,09,31,7.70
2019,03,27,09,32,7.70
2019,03,27,09,33,7.80
2019,03,27,09,34,7.80
2019,03,27,09,35,7.90
2019,03,27,09,36,8.00
2019,03,27,09,37,8.10
2019,03,27,09,38,8.10
2019,03,27,09,39,8.20
2019,03,27,09,40,8.20
2019,03,27,09,41,8.20
2019,03,27,09,42,8.30
2019,03,27,09,43,8.30
2019,03,27,09,44,8.30
2019,03,27,09,45,8.30
2019,03,27,09,46,8.30
2019,03,27,09,47,8.30
2019,03,27,09,48,8.30
2019,03,27,09,49,8.40
2019,03,27,09,50,8.50
2019,03,27,09,51,8.50
2019,03,27,09,52,8.60
2019,03,27,09,53,8.60
2019,03,27,09,54,8.70
2019,03,27,09,55,8.80
2019,03,27,09,56,8.80
2019,03,27,09,57,8.80
2019,03,27,09,58,8.80
2019,03,27,09,59,8.80
2019,03,27,10,00,8.80
2019,03,27,10,01,8.80
2019,03,27,10,02,8.90
2019,03,27,10,03,8.90
2019,03,27,10,04,9.00
2019,03,27,10,05,9.00
2019,03,27,10,06,9.10
2019,03,27,10,07,9.10
2019,03,27,10,08,9.20
2019,03,27,10,09,9.20
2019,03,27,10,10,9.30
2019,03,27,10,11,9.30
2019,03,27,10,12,9.40
2019,03,27,10,13,9.40
2019,03,27,10,14,9.50
2019,03,27,10,15,9.60
2019,03,27,10,16,9.60
2019,03,27,10,17,9.70
2019,03,27,10,18,9.70
2019,03,27,10,19,9.70
2019,03,27,10,20,9.70
2019,03,27,10,21,9.60
2019,03,27,10,22,9.60
2019,03,27,10,23,9.70
2019,03,27,10,24,9.70
2019,03,27,10,25,9.70
2019,03,27,10,26,9.80
2019,03,27,10,27,9.80
2019,03,27,10,28,9.80
2019,03,27,10,29,9.80
2019,03,27,10,30,9.90
2019,03,27,10,31,9.90
2019,03,27,10,32,9.90
2019,03,27,10,33,10.00
2019,03,27,10,34,10.00
2019,03,27,10,35,10.00
2019,03,27,10,36,10.10
2019,03,27,10,37,10.20
2019,03,27,10,38,10.20
2019,03,27,10,39,10.30
2019,03,27,10,40,10.40
2019,03,27,10,41,10.40
2019,03,27,10,42,10.50
2019,03,27,10,43,10.60
2019,03,27,10,44,10.60
2019,03,27,10,45,10.70
2019,03,27,10,46,10.80
2019,03,27,10,47,10.80
2019,03,27,10,48,10.80
2019,03,27,10,49,10.80
2019,03,27,10,50,10.80
2019,03,27,10,51,10.90
2019,03,27,10,52,10.90
2019,03,27,10,53,10.90
2019,03,27,10,54,10.90
2019,03,27,10,55,10.90
2019,03,27,10,56,10.90
2019,03,27,10,57,11.00
2019,03,27,10,58,11.00
2019,03,27,10,59,11.10
2019,03,27,11,00,11.10
2019,03,27,11,01,11.10
2019,03,27,11,02,11.20
2019,03,27,11,03,11.20
2019,03,27,11,04,11.30
2019,03,27,11,05,11.30
2019,03,27,11,06,11.30
2019,03,27,11,07,11.40
2019,03,27,11,08,11.40
2019,03,27,11,09,11.50
2019,03,27,11,10,11.60
2019,03,27,11,11,11.70
2019,03,27,11,12,11.70
2019,03,27,11,13,11.80
2019,03,27,11,14,11.80
2019,03,27,11,15,11.80
2019,03,27,11,16,11.80
2019,03,27,11,17,11.80
2019,03,27,11,18,11.80
2019,03,27,11,19,11.80
2019,03,27,11,20,11.80
2019,03,27,11,21,11.90
2019,03,27,11,22,12.00
2019,03,27,11,23,12.00
2019,03,27,11,24,12.10
2019,03,27,11,25,12.20
2019,03,27,11,26,12.20
2019,03,27,11,27,12.20
2019,03,27,11,28,12.20
2019,03,27,11,29,12.30
2019,03,27,11,30,12.30
2019,03,27,11,31,12.30
2019,03,27,11,32,12.30
2019,03,27,11,33,12.20
2019,03,27,11,34,12.10
2019,03,27,11,35,12.00
2019,03,27,11,36,12.00
2019,03,27,11,37,12.00
2019,03,27,11,38,12.10
2019,03,27,11,39,12.20
2019,03,27,11,40,12.20
2019,03,27,11,41,12.20
2019,03,27,11,42,12.20
2019,03,27,11,43,12.20
2019,03,27,11,44,12.20
2019,03,27,11,45,12.20
2019,03,27,11,46,12.20
2019,03,27,11,47,12.20
2019,03,27,11,48,12.30
2019,03,27,11,49,12.40
2019,03,27,11,50,12.60
2019,03,27,11,51,12.70
2019,03,27,11,52,12.80
2019,03,27,11,53,12.80
2019,03,27,11,54,12.70
2019,03,27,11,55,12.60
2019,03,27,11,56,12.50
2019,03,27,11,57,12.40
2019,03,27,11,58,12.40
2019,03,27,11,59,12.40
2019,03,27,12,00,12.40
2019,03,27,12,01,12.40
2019,03,27,12,02,12.40
2019,03,27,12,03,12.40
2019,03,27,12,04,12.50
2019,03,27,12,05,12.50
2019,03,27,12,06,12.50
2019,03,27,12,07,12.60
2019,03,27,12,08,12.60
2019,03,27,12,09,12.70
2019,03,27,12,10,12.80
2019,03,27,12,11,12.90
2019,03,27,12,12,13.00
2019,03,27,12,13,13.00
2019,03,27,12,14,13.00
2019,03,27,12,15,13.10
2019,03,27,12,16,13.00
2019,03,27,12,17,12.90
2019,03,27,12,18,12.90
2019,03,27,12,19,12.90
2019,03,27,12,20,13.00
2019,03,27,12,21,13.10
2019,03,27,12,22,13.20
2019,03,27,12,23,13.20
2019,03,27,12,24,13.10
2019,03,27,12,25,13.10
2019,03,27,12,26,13.10
2019,03,27,12,27,13.10
2019,03,27,12,28,13.10
2019,03,27,12,29,13.00
2019,03,27,12,30,12.90
2019,03,27,12,31,13.00
2019,03,27,12,32,13.00
2019,03,27,12,33,13.00
2019,03,27,12,34,13.10
2019,03,27,12,35,13.20
2019,03,27,12,36,13.30
2019,03,27,12,37,13.30
2019,03,27,12,38,13.30
2019,03,27,12,39,13.40
2019,03,27,12,40,13.40
2019,03,27,12,41,13.40
2019,03,27,12,42,13.40
2019,03,27,12,43,13.30
2019,03,27,12,44,13.30
2019,03,27,12,45,13.30
2019,03,27,12,46,13.30
2019,03,27,12,47,13.30
2019,03,27,12,48,13.30
2019,03,27,12,49,13.30
2019,03,27,12,50,13.20
2019,03,27,12,51,13.20
2019,03,27,12,52,13.20
2019,03,27,12,53,13.30
2019,03,27,12,54,13.40
2019,03,27,12,55,13.40
2019,03,27,12,56,13.40
2019,03,27,12,57,13.50
2019,03,27,12,58,13.60
2019,03,27,12,59,13.50
2019,03,27,13,00,13.50
2019,03,27,13,01,13.50
2019,03,27,13,02,13.60
2019,03,27,13,03,13.70
2019,03,27,13,04,13.70
2019,03,27,13,05,13.70
2019,03,27,13,06,13.80
2019,03,27,13,07,13.80
2019,03,27,13,08,13.80
2019,03,27,13,09,13.80
2019,03,27,13,10,13.90
2019,03,27,13,11,13.90
2019,03,27,13,12,13.90
2019,03,27,13,13,13.90
2019,03,27,13,14,14.00
2019,03,27,13,15,14.10
2019,03,27,13,16,14.00
2019,03,27,13,17,14.00
2019,03,27,13,18,14.00
2019,03,27,13,19,13.90
2019,03,27,13,20,13.90
2019,03,27,13,21,13.80
2019,03,27,13,22,13.80
2019,03,27,13,23,13.90
2019,03,27,13,24,14.00
2019,03,27,13,25,14.00
2019,03,27,13,26,14.00
2019,03,27,13,27,14.10
2019,03,27,13,28,14.10
2019,03,27,13,29,14.10
2019,03,27,13,30,14.10
2019,03,27,13,31,14.10
2019,03,27,13,32,14.10
2019,03,27,13,33,14.00
2019,03,27,13,34,14.00
2019,03,27,13,35,14.00
2019,03,27,13,36,14.10
2019,03,27,13,37,14.20
2019,03,27,13,38,14.00
2019,03,27,13,39,14.00
2019,03,27,13,40,14.10
2019,03,27,13,41,14.20
2019,03,27,13,42,14.30
2019,03,27,13,43,14.20
2019,03,27,13,44,14.20
2019,03,27,13,45,14.20
2019,03,27,13,46,14.20
2019,03,27,13,47,14.40
2019,03,27,13,48,14.40
2019,03,27,13,49,14.50
2019,03,27,13,50,14.50
2019,03,27,13,51,14.60
2019,03,27,13,52,14.70
2019,03,27,13,53,14.70
2019,03,27,13,54,14.70
2019,03,27,13,55,14.70
2019,03,27,13,56,14.70
2019,03,27,13,57,14.60
2019,03,27,13,58,14.60
2019,03,27,13,59,14.60
2019,03,27,14,00,14.60
2019,03,27,14,01,14.60
2019,03,27,14,02,14.50
2019,03,27,14,03,14.50
2019,03,27,14,04,14.50
2019,03,27,14,05,14.60
2019,03,27,14,06,14.70
2019,03,27,14,07,14.80
2019,03,27,14,08,15.00
2019,03,27,14,09,15.00
2019,03,27,14,10,15.00
2019,03,27,14,11,15.00
2019,03,27,14,12,15.00
2019,03,27,14,13,15.10
2019,03,27,14,14,15.10
2019,03,27,14,15,15.10
2019,03,27,14,16,15.10
2019,03,27,14,17,15.10
2019,03,27,14,18,15.10
2019,03,27,14,19,15.10
2019,03,27,14,20,15.10
2019,03,27,14,21,15.10
2019,03,27,14,22,15.10
2019,03,27,14,23,15.20
2019,03,27,14,24,15.30
2019,03,27,14,25,15.20
2019,03,27,14,26,15.20
2019,03,27,14,27,15.10
2019,03,27,14,28,15.00
2019,03,27,14,29,15.10
2019,03,27,14,30,15.20
2019,03,27,14,31,15.20
2019,03,27,14,32,15.30
2019,03,27,14,33,15.30
2019,03,27,14,34,15.30
2019,03,27,14,35,15.30
2019,03,27,14,36,15.20
2019,03,27,14,37,15.20
2019,03,27,14,38,15.10
2019,03,27,14,39,15.10
2019,03,27,14,40,15.10
2019,03,27,14,41,15.10
2019,03,27,14,42,15.20
2019,03,27,14,43,15.30
2019,03,27,14,44,15.40
2019,03,27,14,45,15.40
2019,03,27,14,46,15.50
2019,03,27,14,47,15.60
2019,03,27,14,48,15.60
2019,03,27,14,49,15.60
2019,03,27,14,50,15.70
2019,03,27,14,51,15.80
2019,03,27,14,52,15.90
2019,03,27,14,53,15.70
2019,03,27,14,54,15.60
2019,03,27,14,55,15.60
2019,03,27,14,56,15.70
2019,03,27,14,57,15.70
2019,03,27,14,58,15.60
2019,03,27,14,59,15.60
2019,03,27,15,00,15.60
2019,03,27,15,01,15.70
2019,03,27,15,02,15.80
2019,03,27,15,03,15.80
2019,03,27,15,04,15.90
2019,03,27,15,05,16.00
2019,03,27,15,06,16.10
2019,03,27,15,07,16.20
2019,03,27,15,08,16.20
2019,03,27,15,09,16.30
2019,03,27,15,10,16.30
2019,03,27,15,11,16.20
2019,03,27,15,12,16.10
2019,03,27,15,13,16.00
2019,03,27,15,14,15.80
2019,03,27,15,15,15.70
2019,03,27,15,16,15.60
2019,03,27,15,17,15.60
2019,03,27,15,18,15.70
2019,03,27,15,19,15.70
2019,03,27,15,20,15.80
2019,03,27,15,21,16.00
2019,03,27,15,22,16.10
2019,03,27,15,23,16.10
2019,03,27,15,24,16.00
2019,03,27,15,25,15.90
2019,03,27,15,26,15.90
2019,03,27,15,27,15.80
2019,03,27,15,28,15.80
2019,03,27,15,29,15.80
2019,03,27,15,30,15.70
2019,03,27,15,31,15.70
2019,03,27,15,32,15.70
2019,03,27,15,33,15.70
2019,03,27,15,34,15.70
2019,03,27,15,35,15.70
2019,03,27,15,36,15.70
2019,03,27,15,37,15.80
2019,03,27,15,38,15.80
2019,03,27,15,39,15.80
2019,03,27,15,40,15.80
2019,03,27,15,41,15.90
2019,03,27,15,42,15.90
2019,03,27,15,43,15.90
2019,03,27,15,44,16.00
2019,03,27,15,45,16.00
2019,03,27,15,46,16.00
2019,03,27,15,47,15.90
2019,03,27,15,48,15.90
2019,03,27,15,49,15.80
2019,03,27,15,50,15.70
2019,03,27,15,51,15.70
2019,03,27,15,52,15.70
2019,03,27,15,53,15.60
2019,03,27,15,54,15.50
2019,03,27,15,55,15.40
2019,03,27,15,56,15.30
2019,03,27,15,57,15.30
2019,03,27,15,58,15.30
2019,03,27,15,59,15.30
2019,03,27,16,00,15.30
2019,03,27,16,01,15.20
2019,03,27,16,02,15.20
2019,03,27,16,03,15.30
2019,03,27,16,04,15.40
2019,03,27,16,05,15.50
2019,03,27,16,06,15.50
2019,03,27,16,07,15.50
2019,03,27,16,08,15.60
2019,03,27,16,09,15.60
2019,03,27,16,10,15.60
2019,03,27,16,11,15.60
2019,03,27,16,12,15.60
2019,03,27,16,13,15.60
2019,03,27,16,14,15.60
2019,03,27,16,15,15.60
2019,03,27,16,16,15.60
2019,03,27,16,17,15.70
2019,03,27,16,18,15.70
2019,03,27,16,19,15.70
2019,03,27,16,20,15.70
2019,03,27,16,21,15.70
2019,03,27,16,22,15.60
2019,03,27,16,23,15.60
2019,03,27,16,24,15.50
2019,03,27,16,25,15.40
2019,03,27,16,26,15.40
2019,03,27,16,27,15.30
2019,03,27,16,28,15.30
2019,03,27,16,29,15.30
2019,03,27,16,30,15.30
2019,03,27,16,31,15.30
2019,03,27,16,32,15.40
2019,03,27,16,33,15.40
2019,03,27,16,34,15.40
2019,03,27,16,35,15.40
2019,03,27,16,36,15.30
2019,03,27,16,37,15.40
2019,03,27,16,38,15.40
2019,03,27,16,39,15.40
2019,03,27,16,40,15.40
2019,03,27,16,41,15.30
2019,03,27,16,42,15.30
2019,03,27,16,43,15.30
2019,03,27,16,44,15.30
2019,03,27,16,45,15.20
2019,03,27,16,46,15.20
2019,03,27,16,47,15.20
2019,03,27,16,48,15.20
2019,03,27,16,49,15.20
2019,03,27,16,50,15.20
2019,03,27,16,51,15.20
2019,03,27,16,52,15.20
2019,03,27,16,53,15.20
2019,03,27,16,54,15.30
2019,03,27,16,55,15.30
2019,03,27,16,56,15.20
2019,03,27,16,57,15.20
2019,03,27,16,58,15.20
2019,03,27,16,59,15.20
2019,03,27,17,00,15.20
2019,03,27,17,01,15.20
2019,03,27,17,02,15.20
2019,03,27,17,03,15.10
2019,03,27,17,04,15.10
2019,03,27,17,05,15.10
2019,03,27,17,06,15.10
2019,03,27,17,07,15.10
2019,03,27,17,08,15.00
2019,03,27,17,09,15.00
2019,03,27,17,10,14.90
2019,03,27,17,11,14.90
2019,03,27,17,12,14.90
2019,03,27,17,13,14.80
2019,03,27,17,14,14.80
2019,03,27,17,15,14.80
2019,03,27,17,16,14.80
2019,03,27,17,17,14.80
2019,03,27,17,18,14.80
2019,03,27,17,19,14.90
2019,03,27,17,20,14.90
2019,03,27,17,21,14.90
2019,03,27,17,22,14.90
2019,03,27,17,23,14.90
2019,03,27,17,24,14.90
2019,03,27,17,25,14.90
2019,03,27,17,26,14.90
2019,03,27,17,27,14.80
2019,03,27,17,28,14.80
2019,03,27,17,29,14.90
2019,03,27,17,30,14.80
2019,03,27,17,31,14.80
2019,03,27,17,32,14.80
2019,03,27,17,33,14.80
2019,03,27,17,34,14.80
2019,03,27,17,35,14.80
2019,03,27,17,36,14.80
2019,03,27,17,37,14.80
2019,03,27,17,38,14.80
2019,03,27,17,39,14.80
2019,03,27,17,40,14.80
2019,03,27,17,41,14.90
2019,03,27,17,42,14.90
2019,03,27,17,43,14.90
2019,03,27,17,44,14.90
2019,03,27,17,45,14.90
2019,03,27,17,46,15.00